ORBCOMM FM106 [-]

Last updated on July 6, 2021, 3:36 p.m. UTC

1 40088U 14040C   21187.20812255 -.00000051  00000-0  24700-4 0  9997
2 40088  47.0613 249.4886 0020185 239.2110 120.6792 14.64506959372084
UTC
Height (km)
Latitude
Longitude
Inclination
Orbital Period
UTC large
Height (km)
Speed (km/s)
/
Latitude / Longitude
Inclination (degrees)
Orbital Period (minutes)
Azimuth
Elevation
Range (km)
Doppler Factor
iOS Compass Heading
iOS Angle